,,Stat6,,Stat2,,Stat8,,Stat9,,Stat10,,Wind1,,Wind1,
time,status,PA1M_AVG,status,PR1M_SUM,status,RH1M_AVG,status,SR1M_AVG,status,TA1M_AVG,status,W1dAve1m,status,W1sAve1m,
2005-04-11, 00:00:00,VALID,920.313,VALID,0,VALID,98.5964,VALID,-0.0679233,VALID,18.3891,VALID,60,VALID,0.381324,
2005-04-11, 00:01:00,VALID,920.31,VALID,0,VALID,98.8444,VALID,-0.0339617,VALID,18.3795,VALID,39,VALID,0.528773,
2005-04-11, 00:02:00,VALID,920.29,VALID,0,VALID,98.9804,VALID,-0.0509425,VALID,18.4249,VALID,6,VALID,0.681108,
2005-04-11, 00:03:00,VALID,920.246,VALID,0,VALID,98.9168,VALID,-0.0679233,VALID,18.4602,VALID,6,VALID,0.551417,
2005-04-11, 00:04:00,VALID,920.193,VALID,0,VALID,98.7681,VALID,-0.101885,VALID,18.5282,VALID,6,VALID,0.394886,
2005-04-11, 00:05:00,VALID,920.148,VALID,0,VALID,98.4718,VALID,-0.0339617,VALID,18.5635,VALID,6,VALID,0.195122,
2005-04-11, 00:06:00,VALID,920.105,VALID,0,VALID,98.2149,VALID,-0.0509425,VALID,18.6124,VALID,6,VALID,0.030506,
2005-04-11, 00:07:00,VALID,920.09,VALID,0,VALID,97.9186,VALID,-0.0169808,VALID,18.6183,VALID,6,VALID,0.0078125,
2005-04-11, 00:08:00,VALID,920.085,VALID,0,VALID,97.658,VALID,-0.0509425,VALID,18.6347,VALID,6,VALID,0,
2005-04-11, 00:09:00,VALID,920.09,VALID,0,VALID,97.2777,VALID,-0.0509425,VALID,18.6276,VALID,6,VALID,0.119271,
2005-04-11, 00:10:00,VALID,920.099,VALID,0,VALID,97.1023,VALID,-0.0849042,VALID,18.6278,VALID,58,VALID,0.48383,
2005-04-11, 00:11:00,VALID,920.088,VALID,0,VALID,97.0565,VALID,-0.0679233,VALID,18.6407,VALID,77,VALID,0.505952,
2005-04-11, 00:12:00,VALID,920.055,VALID,0,VALID,96.9891,VALID,-0.0849042,VALID,18.6633,VALID,102,VALID,0.684896,
2005-04-11, 00:13:00,VALID,920.014,VALID,0,VALID,96.6102,VALID,-0.0849042,VALID,18.6735,VALID,109,VALID,0.679688,
2005-04-11, 00:14:00,VALID,919.967,VALID,0,VALID,96.3126,VALID,-0.0849042,VALID,18.6573,VALID,109,VALID,0.433333,
2005-04-11, 00:15:00,VALID,919.905,VALID,0,VALID,96.0316,VALID,-0.101885,VALID,18.599,VALID,109,VALID,0.498132,
2005-04-11, 00:16:00,VALID,919.856,VALID,0,VALID,96.6191,VALID,-0.101885,VALID,18.6218,VALID,109,VALID,0.594105,
2005-04-11, 00:17:00,VALID,919.805,VALID,0,VALID,96.4385,VALID,-0.0849042,VALID,18.6481,VALID,123,VALID,0.708705,
2005-04-11, 00:18:00,VALID,919.776,VALID,0,VALID,96.5339,VALID,-0.101885,VALID,18.6578,VALID,134,VALID,0.57934,
2005-04-11, 00:19:00,VALID,919.742,VALID,0,VALID,96.5606,VALID,-0.0509425,VALID,18.6635,VALID,134,VALID,0.421317,
2005-04-11, 00:20:00,VALID,919.715,VALID,0,VALID,96.8352,VALID,0,VALID,18.6628,VALID,134,VALID,0.353981,
2005-04-11, 00:21:00,VALID,919.701,VALID,0,VALID,97.0794,VALID,0.0339617,VALID,18.676,VALID,134,VALID,0.455357,
2005-04-11, 00:22:00,VALID,919.676,VALID,0,VALID,97.368,VALID,0,VALID,18.6787,VALID,134,VALID,0.370536,
2005-04-11, 00:23:00,VALID,919.649,VALID,0,VALID,97.1239,VALID,0,VALID,18.6591,VALID,134,VALID,0.145894,
2005-04-11, 00:24:00,VALID,919.62,VALID,0,VALID,97.176,VALID,0.0169808,VALID,18.6661,VALID,134,VALID,0.0880335,
2005-04-11, 00:25:00,VALID,919.586,VALID,0,VALID,97.4596,VALID,0,VALID,18.6658,VALID,134,VALID,0.305556,
2005-04-11, 00:26:00,VALID,919.558,VALID,0,VALID,97.6732,VALID,0,VALID,18.6656,VALID,134,VALID,0.42024,
2005-04-11, 00:27:00,VALID,919.541,VALID,0,VALID,97.7889,VALID,0,VALID,18.6921,VALID,134,VALID,0.459896,
2005-04-11, 00:28:00,VALID,919.535,VALID,0,VALID,97.5473,VALID,0,VALID,18.6854,VALID,134,VALID,0.198153,
2005-04-11, 00:29:00,VALID,919.526,VALID,0,VALID,97.6313,VALID,0.0169808,VALID,18.6624,VALID,134,VALID,0.302557,
2005-04-11, 00:30:00,VALID,919.547,VALID,0,VALID,97.7737,VALID,0,VALID,18.6564,VALID,134,VALID,0.120477,
2005-04-11, 00:31:00,VALID,919.563,VALID,0,VALID,97.6478,VALID,0.0169808,VALID,18.6338,VALID,134,VALID,0,
2005-04-11, 00:32:00,VALID,919.599,VALID,0,VALID,96.7895,VALID,0.0169808,VALID,18.5655,VALID,123,VALID,0.144717,
2005-04-11, 00:33:00,VALID,919.653,VALID,0,VALID,96.3101,VALID,0,VALID,18.4426,VALID,60,VALID,0.576522,
2005-04-11, 00:34:00,VALID,919.708,VALID,0,VALID,96.7984,VALID,0,VALID,18.3656,VALID,50,VALID,0.535714,
2005-04-11, 00:35:00,VALID,919.767,VALID,0,VALID,96.7348,VALID,0,VALID,18.2923,VALID,50,VALID,0.233073,
2005-04-11, 00:36:00,VALID,919.808,VALID,0,VALID,97.5117,VALID,0,VALID,18.2566,VALID,50,VALID,0.101004,
2005-04-11, 00:37:00,VALID,919.838,VALID,0,VALID,97.8106,VALID,-0.0509425,VALID,18.2497,VALID,50,VALID,0.00985863,
2005-04-11, 00:38:00,VALID,919.821,VALID,0,VALID,97.7927,VALID,0,VALID,18.2665,VALID,49,VALID,0.289258,
2005-04-11, 00:39:00,VALID,919.801,VALID,0,VALID,97.8118,VALID,-0.0509425,VALID,18.2722,VALID,51,VALID,0.474826,
2005-04-11, 00:40:00,VALID,919.774,VALID,0,VALID,97.9466,VALID,-0.0339617,VALID,18.3045,VALID,61,VALID,0.502096,
2005-04-11, 00:41:00,VALID,919.735,VALID,0,VALID,97.6898,VALID,-0.0679233,VALID,18.3403,VALID,75,VALID,0.552871,
2005-04-11, 00:42:00,VALID,919.714,VALID,0,VALID,97.5499,VALID,-0.0509425,VALID,18.3797,VALID,103,VALID,0.745916,
2005-04-11, 00:43:00,VALID,919.695,VALID,0,VALID,97.3896,VALID,-0.0339617,VALID,18.379,VALID,114,VALID,0.919727,
2005-04-11, 00:44:00,VALID,919.708,VALID,0,VALID,97.4265,VALID,-0.0339617,VALID,18.3633,VALID,123,VALID,1.05287,
2005-04-11, 00:45:00,VALID,919.724,VALID,0,VALID,97.5143,VALID,-0.0509425,VALID,18.3306,VALID,127,VALID,1.02493,
2005-04-11, 00:46:00,VALID,919.744,VALID,0,VALID,97.9275,VALID,-0.0509425,VALID,18.3377,VALID,132,VALID,0.968387,
2005-04-11, 00:47:00,VALID,919.755,VALID,0,VALID,98.2035,VALID,-0.0339617,VALID,18.3184,VALID,130,VALID,0.870924,
2005-04-11, 00:48:00,VALID,919.761,VALID,0,VALID,98.6892,VALID,-0.0509425,VALID,18.3179,VALID,135,VALID,0.974077,
2005-04-11, 00:49:00,VALID,919.743,VALID,0,VALID,99.0415,VALID,0,VALID,18.305,VALID,134,VALID,0.787194,
2005-04-11, 00:50:00,VALID,919.732,VALID,0,VALID,99.0198,VALID,-0.0339617,VALID,18.2854,VALID,125,VALID,0.761161,
2005-04-11, 00:51:00,VALID,919.711,VALID,0,VALID,99.3962,VALID,-0.0509425,VALID,18.2792,VALID,111,VALID,0.936047,
2005-04-11, 00:52:00,VALID,919.692,VALID,0,VALID,99.1864,VALID,-0.0169808,VALID,18.2467,VALID,103,VALID,0.642756,
2005-04-11, 00:53:00,VALID,919.678,VALID,0,VALID,99.0287,VALID,0,VALID,18.2077,VALID,103,VALID,0.585938,
2005-04-11, 00:54:00,VALID,919.67,VALID,0,VALID,99.0644,VALID,0,VALID,18.1856,VALID,103,VALID,0.725109,
2005-04-11, 00:55:00,VALID,919.677,VALID,0,VALID,99.2525,VALID,-0.0339617,VALID,18.1731,VALID,103,VALID,0.699128,
2005-04-11, 00:56:00,VALID,919.684,VALID,0,VALID,99.5361,VALID,-0.0339617,VALID,18.18,VALID,107,VALID,0.858016,
2005-04-11, 00:57:00,VALID,919.698,VALID,0,VALID,99.8197,VALID,-0.0509425,VALID,18.1761,VALID,112,VALID,0.982195,
2005-04-11, 00:58:00,VALID,919.73,VALID,0,VALID,99.8807,VALID,-0.0339617,VALID,18.1985,VALID,114,VALID,0.891578,
2005-04-11, 00:59:00,VALID,919.761,VALID,0,VALID,99.6785,VALID,-0.0679233,VALID,18.1886,VALID,122,VALID,0.823219,
2005-04-11, 01:00:00,VALID,919.781,VALID,0,VALID,99.723,VALID,0,VALID,18.2054,VALID,122,VALID,0.796689,
2005-04-11, 01:01:00,VALID,919.795,VALID,0,VALID,99.5259,VALID,-0.0169808,VALID,18.2121,VALID,112,VALID,0.783558,
2005-04-11, 01:02:00,VALID,919.798,VALID,0,VALID,99.3594,VALID,-0.0509425,VALID,18.1959,VALID,103,VALID,0.682355,
2005-04-11, 01:03:00,VALID,919.792,VALID,0,VALID,99.4331,VALID,-0.0679233,VALID,18.1989,VALID,116,VALID,0.916109,
2005-04-11, 01:04:00,VALID,919.785,VALID,0,VALID,99.2704,VALID,-0.0169808,VALID,18.1987,VALID,106,VALID,0.741616,
2005-04-11, 01:05:00,VALID,919.785,VALID,0,VALID,99.1076,VALID,-0.0339617,VALID,18.2084,VALID,101,VALID,0.870094,
2005-04-11, 01:06:00,VALID,919.773,VALID,0,VALID,99.0771,VALID,-0.0169808,VALID,18.2116,VALID,97,VALID,0.89375,
2005-04-11, 01:07:00,VALID,919.779,VALID,0,VALID,99.1585,VALID,-0.0169808,VALID,18.2148,VALID,104,VALID,1.03587,
2005-04-11, 01:08:00,VALID,919.766,VALID,0,VALID,99.1445,VALID,-0.0339617,VALID,18.2243,VALID,113,VALID,1.00819,
2005-04-11, 01:09:00,VALID,919.775,VALID,0,VALID,98.9881,VALID,-0.0169808,VALID,18.2211,VALID,118,VALID,1.01079,
2005-04-11, 01:10:00,VALID,919.758,VALID,0,VALID,98.8927,VALID,-0.0169808,VALID,18.1955,VALID,128,VALID,0.98971,
2005-04-11, 01:11:00,VALID,919.742,VALID,0,VALID,98.9245,VALID,-0.0339617,VALID,18.1823,VALID,135,VALID,1.16243,
2005-04-11, 01:12:00,VALID,919.717,VALID,0,VALID,99.1496,VALID,-0.0509425,VALID,18.2211,VALID,140,VALID,1.1032,
2005-04-11, 01:13:00,VALID,919.672,VALID,0,VALID,99.0237,VALID,-0.0509425,VALID,18.2692,VALID,131,VALID,0.706854,
2005-04-11, 01:14:00,VALID,919.651,VALID,0,VALID,98.632,VALID,-0.0339617,VALID,18.2923,VALID,130,VALID,1.02511,
2005-04-11, 01:15:00,VALID,919.612,VALID,0,VALID,98.4565,VALID,-0.0169808,VALID,18.305,VALID,127,VALID,0.564546,
2005-04-11, 01:16:00,VALID,919.593,VALID,0,VALID,98.4425,VALID,-0.0679233,VALID,18.3117,VALID,122,VALID,0.783612,
2005-04-11, 01:17:00,VALID,919.583,VALID,0,VALID,98.3624,VALID,-0.0339617,VALID,18.3536,VALID,122,VALID,0.555831,
2005-04-11, 01:18:00,VALID,919.585,VALID,0,VALID,98.0649,VALID,-0.0509425,VALID,18.3758,VALID,122,VALID,0.476753,
2005-04-11, 01:19:00,VALID,919.59,VALID,0,VALID,97.7432,VALID,-0.0339617,VALID,18.4055,VALID,122,VALID,0.42133,
2005-04-11, 01:20:00,VALID,919.573,VALID,0,VALID,97.2841,VALID,-0.0339617,VALID,18.3993,VALID,122,VALID,0.440739,
2005-04-11, 01:21:00,VALID,919.543,VALID,0,VALID,96.9497,VALID,-0.0849042,VALID,18.3601,VALID,122,VALID,0.362165,
2005-04-11, 01:22:00,VALID,919.521,VALID,0,VALID,95.9616,VALID,-0.0849042,VALID,18.2536,VALID,105,VALID,0.473586,
2005-04-11, 01:23:00,VALID,919.511,VALID,0,VALID,96.7615,VALID,-0.0339617,VALID,18.2058,VALID,88,VALID,0.26647,
2005-04-11, 01:24:00,VALID,919.503,VALID,0,VALID,96.7297,VALID,-0.0509425,VALID,18.1572,VALID,88,VALID,0.049782,
2005-04-11, 01:25:00,VALID,919.509,VALID,0,VALID,96.9611,VALID,-0.0849042,VALID,18.112,VALID,88,VALID,0.054497,
2005-04-11, 01:26:00,VALID,919.485,VALID,0,VALID,97.1976,VALID,-0.0509425,VALID,18.1023,VALID,88,VALID,0.00427827,
2005-04-11, 01:27:00,VALID,919.476,VALID,0,VALID,97.4799,VALID,-0.0169808,VALID,18.0894,VALID,88,VALID,0.348047,
2005-04-11, 01:28:00,VALID,919.432,VALID,0,VALID,97.7749,VALID,-0.0169808,VALID,18.0862,VALID,88,VALID,0.463542,
2005-04-11, 01:29:00,VALID,919.4,VALID,0,VALID,97.8004,VALID,-0.0509425,VALID,18.0825,VALID,106,VALID,0.723586,
2005-04-11, 01:30:00,VALID,919.36,VALID,0,VALID,97.5664,VALID,-0.0339617,VALID,18.1085,VALID,112,VALID,0.910069,
2005-04-11, 01:31:00,VALID,919.328,VALID,0,VALID,97.2879,VALID,-0.0849042,VALID,18.1053,VALID,133,VALID,1.21418,
2005-04-11, 01:32:00,VALID,919.301,VALID,0,VALID,97.2956,VALID,-0.0509425,VALID,18.1344,VALID,131,VALID,1.00508,
2005-04-11, 01:33:00,VALID,919.281,VALID,0,VALID,97.148,VALID,-0.0509425,VALID,18.1438,VALID,131,VALID,0.78234,
2005-04-11, 01:34:00,VALID,919.254,VALID,0,VALID,97.1519,VALID,-0.0679233,VALID,18.1733,VALID,124,VALID,0.624047,
2005-04-11, 01:35:00,VALID,919.211,VALID,0,VALID,97.1722,VALID,0,VALID,18.1793,VALID,124,VALID,0.505809,
2005-04-11, 01:36:00,VALID,919.169,VALID,0,VALID,97.0222,VALID,-0.0169808,VALID,18.1791,VALID,124,VALID,0.474888,
2005-04-11, 01:37:00,VALID,919.152,VALID,0,VALID,97.059,VALID,-0.0169808,VALID,18.1666,VALID,124,VALID,0.353795,
2005-04-11, 01:38:00,VALID,919.116,VALID,0,VALID,97.04,VALID,-0.0169808,VALID,18.1309,VALID,124,VALID,0.445833,
2005-04-11, 01:39:00,VALID,919.108,VALID,0,VALID,97.0082,VALID,0,VALID,18.1046,VALID,124,VALID,0.449574,
2005-04-11, 01:40:00,VALID,919.083,VALID,0,VALID,97.0539,VALID,-0.0169808,VALID,18.0696,VALID,124,VALID,0.273819,
2005-04-11, 01:41:00,VALID,919.071,VALID,0,VALID,97.3477,VALID,-0.0509425,VALID,18.0373,VALID,126,VALID,0.630208,
2005-04-11, 01:42:00,VALID,919.055,VALID,0,VALID,97.4036,VALID,-0.0339617,VALID,18.0274,VALID,126,VALID,0.503452,
2005-04-11, 01:43:00,VALID,919.039,VALID,0,VALID,97.2193,VALID,-0.0169808,VALID,17.9822,VALID,108,VALID,0.560683,
2005-04-11, 01:44:00,VALID,919.03,VALID,0,VALID,97.2256,VALID,0,VALID,17.9377,VALID,88,VALID,0.5754,
2005-04-11, 01:45:00,VALID,919.042,VALID,0,VALID,97.4799,VALID,-0.0169808,VALID,17.9246,VALID,88,VALID,0.591654,
2005-04-11, 01:46:00,VALID,919.057,VALID,0,VALID,97.6046,VALID,-0.0169808,VALID,17.9213,VALID,88,VALID,0.480556,
2005-04-11, 01:47:00,VALID,919.076,VALID,0,VALID,97.541,VALID,-0.0509425,VALID,17.9209,VALID,88,VALID,0.446403,
2005-04-11, 01:48:00,VALID,919.09,VALID,0,VALID,97.2243,VALID,0,VALID,17.9213,VALID,88,VALID,0.422066,
2005-04-11, 01:49:00,VALID,919.104,VALID,0,VALID,96.8365,VALID,-0.0169808,VALID,17.8787,VALID,88,VALID,0.255556,
2005-04-11, 01:50:00,VALID,919.12,VALID,0,VALID,96.2109,VALID,-0.0169808,VALID,17.8174,VALID,88,VALID,0.380814,
2005-04-11, 01:51:00,VALID,919.138,VALID,0,VALID,96.2999,VALID,-0.0339617,VALID,17.7337,VALID,73,VALID,0.613839,
2005-04-11, 01:52:00,VALID,919.153,VALID,0,VALID,96.4538,VALID,-0.0339617,VALID,17.6659,VALID,64,VALID,0.670201,
2005-04-11, 01:53:00,VALID,919.163,VALID,0,VALID,96.8988,VALID,0,VALID,17.6048,VALID,63,VALID,0.465588,
2005-04-11, 01:54:00,VALID,919.182,VALID,0,VALID,97.0883,VALID,-0.0169808,VALID,17.5794,VALID,63,VALID,0.383929,
2005-04-11, 01:55:00,VALID,919.188,VALID,0,VALID,97.2625,VALID,-0.0169808,VALID,17.5343,VALID,63,VALID,0.0365854,
2005-04-11, 01:56:00,VALID,919.184,VALID,0,VALID,97.3871,VALID,0,VALID,17.4916,VALID,63,VALID,0,
2005-04-11, 01:57:00,VALID,919.184,VALID,0,VALID,97.6033,VALID,-0.0169808,VALID,17.4794,VALID,63,VALID,0,
2005-04-11, 01:58:00,VALID,919.176,VALID,0,VALID,97.911,VALID,-0.0169808,VALID,17.4725,VALID,63,VALID,0.0448765,
2005-04-11, 01:59:00,VALID,919.156,VALID,0,VALID,98.1424,VALID,-0.0679233,VALID,17.4859,VALID,63,VALID,0.258721,
2005-04-11, 02:00:00,VALID,919.132,VALID,0,VALID,98.2734,VALID,-0.0509425,VALID,17.4822,VALID,63,VALID,0.39234,
2005-04-11, 02:01:00,VALID,919.117,VALID,0,VALID,98.4095,VALID,-0.0169808,VALID,17.4856,VALID,63,VALID,0.417225,
2005-04-11, 02:02:00,VALID,919.109,VALID,0,VALID,98.6396,VALID,-0.0169808,VALID,17.5018,VALID,63,VALID,0.309126,
2005-04-11, 02:03:00,VALID,919.105,VALID,0,VALID,98.8189,VALID,-0.0339617,VALID,17.5147,VALID,63,VALID,0.101563,
2005-04-11, 02:04:00,VALID,919.102,VALID,0,VALID,98.9397,VALID,0,VALID,17.5472,VALID,63,VALID,0,
2005-04-11, 02:05:00,VALID,919.103,VALID,0,VALID,98.8011,VALID,-0.0169808,VALID,17.5532,VALID,63,VALID,0,
2005-04-11, 02:06:00,VALID,919.087,VALID,0,VALID,98.88,VALID,-0.0169808,VALID,17.553,VALID,63,VALID,0,
2005-04-11, 02:07:00,VALID,919.067,VALID,0,VALID,99.2106,VALID,-0.0169808,VALID,17.5988,VALID,63,VALID,0.149709,
2005-04-11, 02:08:00,VALID,919.063,VALID,0,VALID,99.1928,VALID,-0.0169808,VALID,17.6309,VALID,83,VALID,0.539426,
2005-04-11, 02:09:00,VALID,919.024,VALID,0,VALID,98.8329,VALID,-0.0169808,VALID,17.6242,VALID,118,VALID,0.872904,
2005-04-11, 02:10:00,VALID,919.024,VALID,0,VALID,98.7147,VALID,-0.0509425,VALID,17.6313,VALID,124,VALID,1.14922,
2005-04-11, 02:11:00,VALID,919.007,VALID,0,VALID,98.997,VALID,-0.0339617,VALID,17.6474,VALID,128,VALID,1.12258,
2005-04-11, 02:12:00,VALID,919.002,VALID,0,VALID,99.1228,VALID,-0.0339617,VALID,17.6991,VALID,135,VALID,1.01618,
2005-04-11, 02:13:00,VALID,919.003,VALID,0,VALID,99.105,VALID,-0.0339617,VALID,17.7146,VALID,136,VALID,1.01172,
2005-04-11, 02:14:00,VALID,918.996,VALID,0,VALID,99.2309,VALID,-0.0339617,VALID,17.7473,VALID,146,VALID,0.923118,
2005-04-11, 02:15:00,VALID,918.993,VALID,0,VALID,99.2195,VALID,0,VALID,17.763,VALID,156,VALID,0.836133,
2005-04-11, 02:16:00,VALID,918.974,VALID,0,VALID,99.208,VALID,0,VALID,17.8086,VALID,150,VALID,0.887962,
2005-04-11, 02:17:00,VALID,918.943,VALID,0,VALID,99.0605,VALID,0,VALID,17.8436,VALID,154,VALID,0.930069,
2005-04-11, 02:18:00,VALID,918.9,VALID,0,VALID,98.9118,VALID,-0.0169808,VALID,17.8891,VALID,152,VALID,0.891335,
2005-04-11, 02:19:00,VALID,918.864,VALID,0,VALID,98.646,VALID,-0.0169808,VALID,17.9121,VALID,148,VALID,0.75816,
2005-04-11, 02:20:00,VALID,918.83,VALID,0,VALID,98.4489,VALID,0,VALID,17.9377,VALID,145,VALID,0.629925,
2005-04-11, 02:21:00,VALID,918.801,VALID,0,VALID,98.3802,VALID,0,VALID,17.9541,VALID,141,VALID,0.805804,
2005-04-11, 02:22:00,VALID,918.797,VALID,0,VALID,98.2175,VALID,-0.0339617,VALID,17.9672,VALID,145,VALID,0.942406,
2005-04-11, 02:23:00,VALID,918.812,VALID,0,VALID,98.1908,VALID,0,VALID,17.9764,VALID,144,VALID,1.12165,
2005-04-11, 02:24:00,VALID,918.812,VALID,0,VALID,98.131,VALID,-0.0339617,VALID,18.0062,VALID,141,VALID,0.944271,
2005-04-11, 02:25:00,VALID,918.822,VALID,0,VALID,98.0293,VALID,-0.0339617,VALID,18.0119,VALID,132,VALID,0.995908,
2005-04-11, 02:26:00,VALID,918.821,VALID,0,VALID,97.9339,VALID,0,VALID,18.0119,VALID,124,VALID,0.697852,
2005-04-11, 02:27:00,VALID,918.821,VALID,0,VALID,97.8067,VALID,0,VALID,18.035,VALID,117,VALID,1.00541,
2005-04-11, 02:28:00,VALID,918.811,VALID,0,VALID,97.6999,VALID,0,VALID,18.0345,VALID,108,VALID,0.991806,
2005-04-11, 02:29:00,VALID,918.822,VALID,0,VALID,97.4787,VALID,-0.0169808,VALID,18.0145,VALID,108,VALID,0.899009,
2005-04-11, 02:30:00,VALID,918.819,VALID,0,VALID,97.3515,VALID,-0.0339617,VALID,18.0182,VALID,98,VALID,0.91311,
2005-04-11, 02:31:00,VALID,918.821,VALID,0,VALID,97.0959,VALID,-0.0169808,VALID,18.0023,VALID,89,VALID,0.842773,
2005-04-11, 02:32:00,VALID,918.817,VALID,0,VALID,96.5466,VALID,0,VALID,17.9504,VALID,85,VALID,0.685082,
2005-04-11, 02:33:00,VALID,918.837,VALID,0,VALID,96.174,VALID,-0.0339617,VALID,17.8508,VALID,57,VALID,0.875545,
2005-04-11, 02:34:00,VALID,918.833,VALID,0,VALID,96.5746,VALID,0,VALID,17.718,VALID,37,VALID,1.06784,
2005-04-11, 02:35:00,VALID,918.837,VALID,0,VALID,97.616,VALID,0.0169808,VALID,17.6601,VALID,25,VALID,1.23209,
2005-04-11, 02:36:00,VALID,918.814,VALID,0,VALID,98.1297,VALID,0,VALID,17.644,VALID,22,VALID,1.00963,
2005-04-11, 02:37:00,VALID,918.791,VALID,0,VALID,98.5099,VALID,0,VALID,17.641,VALID,42,VALID,0.946075,
2005-04-11, 02:38:00,VALID,918.753,VALID,0,VALID,98.5214,VALID,-0.0169808,VALID,17.6474,VALID,44,VALID,0.979651,
2005-04-11, 02:39:00,VALID,918.705,VALID,0,VALID,97.9148,VALID,-0.0169808,VALID,17.6119,VALID,38,VALID,0.845052,
2005-04-11, 02:40:00,VALID,918.674,VALID,0,VALID,98.2175,VALID,0.0169808,VALID,17.5893,VALID,24,VALID,0.723366,
2005-04-11, 02:41:00,VALID,918.626,VALID,0,VALID,98.5633,VALID,-0.0169808,VALID,17.602,VALID,18,VALID,0.338601,
2005-04-11, 02:42:00,VALID,918.591,VALID,0,VALID,98.8304,VALID,-0.0169808,VALID,17.6442,VALID,17,VALID,0.321837,
2005-04-11, 02:43:00,VALID,918.557,VALID,0,VALID,98.941,VALID,0,VALID,17.7249,VALID,16,VALID,0.0234375,
2005-04-11, 02:44:00,VALID,918.54,VALID,0,VALID,98.8316,VALID,0,VALID,17.7475,VALID,16,VALID,0,
2005-04-11, 02:45:00,VALID,918.519,VALID,0,VALID,98.899,VALID,-0.0169808,VALID,17.8088,VALID,16,VALID,0,
2005-04-11, 02:46:00,VALID,918.512,VALID,0,VALID,98.7337,VALID,-0.0169808,VALID,17.8506,VALID,16,VALID,0,
2005-04-11, 02:47:00,VALID,918.491,VALID,0,VALID,98.6117,VALID,0,VALID,17.8828,VALID,16,VALID,0,
2005-04-11, 02:48:00,VALID,918.472,VALID,0,VALID,98.4514,VALID,-0.0339617,VALID,17.9347,VALID,16,VALID,0,
2005-04-11, 02:49:00,VALID,918.456,VALID,0,VALID,98.0839,VALID,-0.0339617,VALID,17.9379,VALID,16,VALID,0,
2005-04-11, 02:50:00,VALID,918.437,VALID,0,VALID,97.883,VALID,0,VALID,17.9541,VALID,16,VALID,0,
2005-04-11, 02:51:00,VALID,918.402,VALID,0,VALID,97.8055,VALID,-0.0169808,VALID,17.9831,VALID,16,VALID,0,
2005-04-11, 02:52:00,VALID,918.375,VALID,0,VALID,97.658,VALID,0,VALID,18.0119,VALID,16,VALID,0,
2005-04-11, 02:53:00,VALID,918.358,VALID,0,VALID,97.4456,VALID,0,VALID,18.0281,VALID,16,VALID,0.176736,
2005-04-11, 02:54:00,VALID,918.358,VALID,0,VALID,97.0527,VALID,0,VALID,18.041,VALID,16,VALID,0.293899,
2005-04-11, 02:55:00,VALID,918.361,VALID,0,VALID,96.8797,VALID,0,VALID,18.0537,VALID,16,VALID,0.313542,
2005-04-11, 02:56:00,VALID,918.383,VALID,0,VALID,96.7284,VALID,-0.0509425,VALID,18.0472,VALID,16,VALID,0.427951,
2005-04-11, 02:57:00,VALID,918.373,VALID,0,VALID,96.5758,VALID,0,VALID,18.0474,VALID,16,VALID,0.544876,
2005-04-11, 02:58:00,VALID,918.373,VALID,0,VALID,96.3889,VALID,0,VALID,18.0345,VALID,16,VALID,0.584847,
2005-04-11, 02:59:00,VALID,918.353,VALID,0,VALID,96.2045,VALID,0,VALID,18.0435,VALID,17,VALID,0.51527,
2005-04-11, 03:00:00,VALID,918.333,VALID,0,VALID,96.2236,VALID,0,VALID,18.0666,VALID,17,VALID,0.555259,
2005-04-11, 03:01:00,VALID,918.332,VALID,0,VALID,95.9413,VALID,0,VALID,18.1535,VALID,16,VALID,0.362926,
2005-04-11, 03:02:00,VALID,918.313,VALID,0,VALID,95.2088,VALID,-0.0169808,VALID,18.2575,VALID,16,VALID,0.279297,
2005-04-11, 03:03:00,VALID,918.296,VALID,0,VALID,94.6481,VALID,-0.0169808,VALID,18.3059,VALID,63,VALID,0.596243,
2005-04-11, 03:04:00,VALID,918.28,VALID,0,VALID,94.3391,VALID,0,VALID,18.2764,VALID,109,VALID,1.01381,
2005-04-11, 03:05:00,VALID,918.26,VALID,0,VALID,94.6888,VALID,0.0679233,VALID,18.2303,VALID,127,VALID,0.968559,
2005-04-11, 03:06:00,VALID,918.252,VALID,0,VALID,94.7167,VALID,0.101885,VALID,18.2238,VALID,136,VALID,0.81593,
2005-04-11, 03:07:00,VALID,918.248,VALID,0,VALID,94.4001,VALID,0.0679233,VALID,18.1943,VALID,133,VALID,0.331321,
2005-04-11, 03:08:00,VALID,918.251,VALID,0,VALID,94.6455,VALID,0.101885,VALID,18.1687,VALID,133,VALID,0.198686,
2005-04-11, 03:09:00,VALID,918.256,VALID,0,VALID,95.0346,VALID,0.101885,VALID,18.1427,VALID,133,VALID,0.274528,
2005-04-11, 03:10:00,VALID,918.26,VALID,0,VALID,95.1885,VALID,0.0849042,VALID,18.124,VALID,133,VALID,0.433036,
2005-04-11, 03:11:00,VALID,918.266,VALID,0,VALID,95.4988,VALID,0.0849042,VALID,18.0952,VALID,133,VALID,0.337003,
2005-04-11, 03:12:00,VALID,918.265,VALID,0,VALID,95.1593,VALID,0.0849042,VALID,18.0396,VALID,133,VALID,0.335582,
2005-04-11, 03:13:00,VALID,918.258,VALID,0,VALID,94.8604,VALID,0.0849042,VALID,17.9495,VALID,96,VALID,0.575763,
2005-04-11, 03:14:00,VALID,918.249,VALID,0,VALID,95.8714,VALID,0.101885,VALID,17.8976,VALID,80,VALID,0.563889,
2005-04-11, 03:15:00,VALID,918.237,VALID,0,VALID,96.5072,VALID,0.0849042,VALID,17.8527,VALID,90,VALID,0.660823,
2005-04-11, 03:16:00,VALID,918.221,VALID,0,VALID,97.2091,VALID,0.0339617,VALID,17.8176,VALID,90,VALID,0.80814,
2005-04-11, 03:17:00,VALID,918.199,VALID,0,VALID,97.7584,VALID,0.101885,VALID,17.7851,VALID,93,VALID,0.824777,
2005-04-11, 03:18:00,VALID,918.19,VALID,0,VALID,97.7457,VALID,0.101885,VALID,17.7715,VALID,99,VALID,0.744444,
2005-04-11, 03:19:00,VALID,918.172,VALID,0,VALID,97.457,VALID,0.0509425,VALID,17.7429,VALID,103,VALID,0.456836,
2005-04-11, 03:20:00,VALID,918.171,VALID,0,VALID,97.5168,VALID,0,VALID,17.7118,VALID,103,VALID,0.57303,
2005-04-11, 03:21:00,VALID,918.171,VALID,0,VALID,97.8958,VALID,-0.0169808,VALID,17.6924,VALID,103,VALID,0.641047,
2005-04-11, 03:22:00,VALID,918.169,VALID,0,VALID,97.9275,VALID,-0.0339617,VALID,17.6864,VALID,102,VALID,0.71532,
2005-04-11, 03:23:00,VALID,918.156,VALID,0,VALID,97.9581,VALID,-0.0339617,VALID,17.6502,VALID,99,VALID,0.815476,
2005-04-11, 03:24:00,VALID,918.147,VALID,0,VALID,98.2327,VALID,-0.0169808,VALID,17.6571,VALID,99,VALID,0.952195,
2005-04-11, 03:25:00,VALID,918.147,VALID,0,VALID,98.3548,VALID,-0.0849042,VALID,17.6638,VALID,99,VALID,0.767149,
2005-04-11, 03:26:00,VALID,918.142,VALID,0,VALID,98.1679,VALID,-0.0849042,VALID,17.6799,VALID,100,VALID,0.387251,
2005-04-11, 03:27:00,VALID,918.13,VALID,0,VALID,98.0928,VALID,-0.0679233,VALID,17.6765,VALID,100,VALID,0.0895579,
2005-04-11, 03:28:00,VALID,918.121,VALID,0,VALID,97.9352,VALID,-0.0509425,VALID,17.6769,VALID,99,VALID,0,
2005-04-11, 03:29:00,VALID,918.119,VALID,0,VALID,97.8169,VALID,-0.0509425,VALID,17.6634,VALID,100,VALID,0,
2005-04-11, 03:30:00,VALID,918.118,VALID,0,VALID,97.7012,VALID,-0.0679233,VALID,17.641,VALID,100,VALID,0,
2005-04-11, 03:31:00,VALID,918.124,VALID,0,VALID,97.424,VALID,-0.0849042,VALID,17.6285,VALID,100,VALID,0,
2005-04-11, 03:32:00,VALID,918.125,VALID,0,VALID,97.6109,VALID,-0.101885,VALID,17.6318,VALID,100,VALID,0,
2005-04-11, 03:33:00,VALID,918.115,VALID,0,VALID,97.9924,VALID,-0.101885,VALID,17.6804,VALID,100,VALID,0,